Regional Weather Roundup
Issued by NWS Wakefield, VA

Home | Current Version | Previous Version | Graphics & Text | Print | Product List | Glossary On
Versions: 1 2 3 4 5 6 7 8 9 10 11 12 13 14 15 16 17 18 19 20 21 22 23 24 25 26 27
000
ASUS41 KAKQ 050315
RWRAKQ

REGIONAL WEATHER ROUNDUP
NATIONAL WEATHER SERVICE WAKEFIELD VA
1100 PM EDT WED MAY 04 2016

Note: "fair" indicates few or no clouds below 12,000 feet with no
significant weather and/or obstructions to visibility. * = Denotes
station may not report precipitation (e.g., rain,snow,etc.),
thunder or fog.

VAZ042-051-052>054-056-050400-
NORTHERN VIRGINIA

CITY           SKY/WX    TMP DP  RH WIND       PRES   REMARKS
WASH NATIONAL  CLOUDY    54  51  90 NE12      29.71R
DULLES         CLOUDY    54  50  86 E8        29.69R
FORT BELVOIR   NOT AVBL
QUANTICO       MOCLDY    56  52  86 E13       29.70R
FREDERICKSBRG* CLOUDY    55  55 100 NE6       29.69R
STAFFORD*      CLOUDY    53  51  92 E3        29.73R
WARRENTON      CLOUDY    56  50  80 E3        29.68S
CULPEPER*      CLOUDY    56  54  94 CALM      29.70R
MANASSAS*      CLOUDY    55  54  94 E3        29.69R
LEESBURG*      LGT RAIN  54  54 100 CALM      29.70S
WINCHESTER     CLOUDY    55  52  88 E6        29.69R
FRONT ROYAL*   CLOUDY    52  52 100 CALM      29.68R
LURAY*         FAIR      52  52 100 NW5       29.68R
$$

VAZ048-049-060>072-079>083-050400-
CENTRAL AND SOUTH CENTRAL VIRGINIA

CITY           SKY/WX    TMP DP  RH WIND       PRES   REMARKS
RICHMOND       CLOUDY    55  53  93 E9        29.67R
CHESTERFIELD*    N/A    N/A N/A N/A MISG        N/A
PETERSBURG*    CLOUDY    60  60 100 E10       29.67R
HANOVER        CLOUDY    56  53  90 NE3       29.68R
TAPPAHANNOCK*  CLOUDY    57  56  98 E7        29.69R
QUINTON*       CLOUDY    56  55  96 E7        29.67R
CHARLOTTSVILLE LGT RAIN  56  53  90 NE7       29.67S
GORDONSVILLE*  CLOUDY    56  55  98 CALM      29.68R
ORANGE*        RAIN      55  55 100 NE7       29.69R
LOUISA*        CLOUDY    61  57  88 NE7       29.66R
BUMPASS*       CLOUDY    56  53  91 CALM      29.67R
FARMVILLE*     FAIR      60  56  88 NE3       29.63R
CREWE*         FAIR      57  57 100 CALM      29.64R
FORT PICKETT*  NOT AVBL
CHASE CITY*    FAIR      54  52  94 CALM      29.63S
CLARKSVILLE*   FAIR      52  52 100 CALM      29.63S
SOUTH HILL*    MOCLDY    56  52  86 CALM      29.69S
LAWRENCEVILLE* CLOUDY    59  58  97 CALM      29.64S
EMPORIA*       CLOUDY    59  55  88 NE5       29.66S
$$

VAZ088>098-050400-
SOUTHEAST VIRGINIA

CITY           SKY/WX    TMP DP  RH WIND       PRES   REMARKS
NORFOLK        CLOUDY    54  52  93 NE10      29.67R FOG
VIRGINIA BEACH CLOUDY    57  51  80 NE8       29.66S FOG
NORFOLK NAVAL  CLOUDY    55  53  93 E12       29.69R FOG
WEST POINT*    CLOUDY    56  55  93 NE3       29.68S
SALUDA*        CLOUDY    56  54  94 NE7       29.67S
NEWPORT NEWS   CLOUDY    56  55  97 E9        29.67R FOG
LANGLEY AFB    NOT AVBL
FORT EUSTIS    NOT AVBL
WILLIAMSBURG*  FAIR      57  57 100 CALM      29.68S
HR EXEC AP*    CLOUDY    55  52  88 E9        29.69S
FRANKLIN*      CLOUDY    58  55  89 E9        29.67R
US460-WAKEFLD  CLOUDY    57  55  93 NE3       29.66S
$$

VAZ020-022-025-037-045-050400-
WEST CENTRAL AND SOUTHWEST VIRGINIA

CITY           SKY/WX    TMP DP  RH WIND       PRES   REMARKS
STAUNTON*      CLOUDY    55  51  86 N6        29.68S
WAYNESBORO*    FAIR      50  48  92 CALM      29.67R
HOT SPRINGS VA FAIR      46  40  78 W13       29.67S
LYNCHBURG      FAIR      51  46  83 CALM      29.65R
DANVILLE       FAIR      51  49  92 CALM      29.64R
SOUTH BOSTON*  FAIR      53  51  95 CALM      29.64R
MARTINSVILLE   FAIR      49  48  97 CALM      29.67S
ROANOKE        CLOUDY    58  42  55 NW9       29.66S
BLACKSBURG     FAIR      52  44  73 NW6       29.72R
DUBLIN*        FAIR      54  44  69 NW7       29.70R
MARION*        CLOUDY    50  45  82 W5        29.73F
HILLSVILLE*    MOCLDY    52  40  62 W3        29.68S
RICHLANDS*     CLOUDY    47  33  57 W6        29.72R
WISE*          LGT RAIN  43  43 100 W5        29.74S
ABINGDON*      CLOUDY    52  47  85 W3        29.72S
$$

MDZ021>025-VAZ099-100-050400-
SOUTHERN MARYLAND AND THE DELMARVA PENINSULA

CITY           SKY/WX    TMP DP  RH WIND       PRES   REMARKS
PATUXENT RIVER CLOUDY    54  50  86 NE12      29.69R
BAY BRIDGE APT NOT AVBL
LEONARDTOWN    CLOUDY    52  50  93 E6        29.71R
DOVER          CLOUDY    50  50 100 NE9       29.71S
GEORGETOWN     CLOUDY    50  47  89 NE9       29.71S
EASTON         CLOUDY   N/A N/A N/A E7        29.74S
CAMBRIDGE      CLOUDY    50  48  93 NE3       29.70R
SALISBURY      CLOUDY    50  48  93 NE15      29.70S
OCEAN CITY     CLOUDY    50  47  89 NE12G23   29.70S
WALLOPS ISLAND CLOUDY    52  49  89 NE17      29.68F
ACCOMACK*      CLOUDY    52  32  46 NE9       29.67F
$$

NCZ012>017-030>032-050400-
NORTH CENTRAL AND EASTERN NORTH CAROLINA

CITY           SKY/WX    TMP DP  RH WIND       PRES   REMARKS
ROANOKE RAPIDS FAIR      55  54  94 NE9       29.64R
RALEIGH        CLOUDY    60  53  77 CALM      29.65S
ELIZABETH CITY CLOUDY    57  55  93 NE13      29.65F
AHOSKIE*       CLOUDY    60  58  92 E5        29.65R
EDENTON*       CLOUDY    61  61 100 NE8       29.65F
CURRITUCK*     NOT AVBL
KILL DEVIL HLS CLOUDY    56  55  96 NE6       29.63F
MANTEO         CLOUDY    56  56  97 NE10G18   29.65F
CAPE HATTERAS  CLOUDY    60  59  96 NE12G21   29.61F
TARBORO*       CLOUDY    61  60  97 CALM      29.64R
GOLDSBORO      CLOUDY    64  62  94 N2        29.60F
WASHINGTON     MOCLDY    64  61  92 E7        29.62S
GREENVILLE     MOCLDY    61  61 100 CALM      29.65F
NEW BERN       CLEAR     65  61  87 E8        29.63R
WILMINGTON     MOCLDY    66  60  81 N3        29.61S
$$

VAZ048-050400-
ELSEWHERE

CITY           SKY/WX    TMP DP  RH WIND       PRES   REMARKS
HARRISBURG PA  DRIZZLE   51  48  89 E10       29.72S FOG
BALTIMORE      CLOUDY    52  48  86 E10       29.70S
ANNAPOLIS      CLOUDY    52  50  93 E9        29.71R
ANDREWS AFB    CLOUDY    52  50  93 NE8       29.69R
PHILADELPHIA   CLOUDY    51  47  86 NE6       29.73F
HENDERSON NC   CLOUDY    57  53  85 CALM      29.64S
GREENSBORO     CLEAR     57  47  69 CALM      29.64R
ROCKY MOUNT    CLOUDY    62  60  93 CALM      29.63R
$$

VAZ100-050400-
MARINE

STATION/POSITION TIME  TEMP    WIND        PRES    WAVE   SWELL
                       AIR SEA DIR/SP/G            HT/PER HT/PER
                 (UTC) (F)     (DEG/KT/KT) (MB)    (FT/S) (FT/S)
BRANDYWINE LGT   0200   50                 1005.8S
CAPE MAY NJ      0200   50 58              1005.5R
LEWES DE         0200   51 56              1006.0R
15NM E FENWICK I 0250   50 51              1005.1R   7/ 6
OCEAN-CITY-INLET 0200   51 55              1005.1R
WACHAPREAGUE VA  0200   54 62              1004.2R
THOMAS POINT MD  0300   52 59   60/ 13/ 15 1007.2R
GOOSES REEF MD   0200   55 59   60/ 14/ 16 1005.9F   1/ 2
COVE POINT MD    0200   53                 1005.4R
SOLOMONS ISLAND  0200   54 60                N/A
BISHOPS HEAD MD  0200   54 61              1004.4R
PINEY POINT MD   0200           80/  8/ 10   N/A
POTOMAC MD       0200   56 61   60/ 14/ 16 1003.7R   1/ 2
CAMBRIDGE MD     0200   53 62              1004.6R
LEWISETTA VA     0200   56 63              1004.3R
RAPPAHANNOCK LGT 0200                      1005.2R
STINGRAY PT      0200   57 62   70/ 12/ 14 1005.0R   2/ 3
YORK RVR RNG VA  0200   58                 1003.8R
YORKTOWN VA      0200   59 63              1004.0R
JAMESTOWN VA     0200   57 68   60/  4/  8   N/A
DOMINION TERM VA 0200   57                 1004.5R
KIPTOPEKE VA     0200      62                N/A
CHES BAY BRIDGE  0200   54 60              1003.9R
CAPE HENRY VA    0200   53                   N/A
CHESAPEAKE LGHT  0200   52      60/ 18/ 20 1005.0R
WILLOUBY STN VA  0200   55                 1005.2R
CAPE HENRY BUOY  0242      56                N/A     4/ 5
CAPE CHARLES BUO 0156      57                N/A     4/ 5   2/ 9
OFFSHORE WE BUOY 0151      56                N/A     4/ 5   2/ 8
64NM E OF VA BCH 0250   52 54   10/ 12/ 16 1003.6S   4/ 8   3/ 8
DUCK PIER NC     0200   56 61              1003.7R
44100 DUCK FRF   0254      59                N/A     3/ 6
44056 DUCK FRF   0241      59                N/A     4/ 4
OREGON INLET NC  0200   56 66              1003.5R
HATTERAS NC      0200   62 70              1002.6R
DIAMOND SHLS NC  0250   64 70   30/ 14/ 17 1002.5S   4/ 7   2/ 7
CAPE LOOKOUT NC  0200   69      20/  5/  6 1001.8R
$$




USA.gov is the U.S. government's official web portal to all federal, state and local government web resources and services.